Breckenridge, MN

2:08 AM CST on December 03, 2016 (GMT -0600)
Stern

Weather History for KBWP - March, 2013

Change the Weather History Date:

Sunday, March 3, 2013

  Actual Average (KFFM) Record (KFFM)
Temperature  
Mean Temperature 21 °F -  
Max Temperature 32 °F 29 °F 44 °F (1993)
Min Temperature 10 °F 9 °F -16 °F (1989)
Degree Days  
Heating Degree Days 44    
Moisture  
Dew Point 15 °F    
Average Humidity 77    
Maximum Humidity 93    
Minimum Humidity 64    
Precipitation  
Precipitation 0.00 in - - ()
Sea Level Pressure  
Sea Level Pressure 29.93 in    
Wind  
Wind Speed 10 mph (SE)    
Max Wind Speed 21 mph    
Max Gust Speed 28 mph    
Visibility 10 miles    
Events      
Averages and records for this station are not official NWS values.
T = Trace of Precipitation, MM = Missing Value Source: NWS Daily Summary

Daily Weather History Graph

Daily Weather History Graph

Search for Another Location

Airport or City:

Trip Planner

Search our weather history database for the weather conditions in past years. The results will help you decide how hot, cold, wet, or windy it might be!

Date:

Astronomy

Mar. 03, 2013 Rise Set
Actual Time 7:01 AM CST 6:15 PM CST
Civil Twilight 6:31 AM CST 6:46 PM CST
Nautical Twilight 5:56 AM CST 7:20 PM CST
Astronomical Twilight 5:21 AM CST 7:55 PM CST
Moon 12:17 AM CST 9:55 AM CST
Length of Visible Light 12h 14m
Length of Day
11h 14m
Waning Gibbous, 63% of the Moon is Illuminated
Mar 3
Waning Gibbous
Mar 4
Last Quarter
Mar 11
New
Mar 19
First Quarter
Mar 27
Full

Hourly Weather History & Observations

Time (CST) Temp. Windchill Dew Point Humidity Pressure Visibility Wind Dir Wind Speed Gust Speed Precip Events Conditions
12:15 AM 15.8 °F 6.1 °F 10.4 °F 79% 30.07 in 10.0 mi SE 6.9 mph - N/A   Clear
12:35 AM 14.0 °F 3.9 °F 10.4 °F 86% 30.06 in 10.0 mi SSE 6.9 mph - N/A   Clear
12:55 AM 14.0 °F 3.9 °F 10.4 °F 86% 30.06 in 10.0 mi SSE 6.9 mph - N/A   Clear
1:15 AM 14.0 °F 3.9 °F 10.4 °F 86% 30.06 in 10.0 mi SSE 6.9 mph - N/A   Clear
1:55 AM 12.2 °F 2.9 °F 8.6 °F 85% 30.05 in 10.0 mi SE 5.8 mph - N/A   Clear
2:15 AM 14.0 °F 6.5 °F 10.4 °F 86% 30.05 in 10.0 mi ESE 4.6 mph - N/A   Clear
2:35 AM 12.2 °F 4.3 °F 8.6 °F 85% 30.04 in 10.0 mi SE 4.6 mph - N/A   Clear
2:55 AM 12.2 °F 2.9 °F 10.4 °F 92% 30.03 in 10.0 mi SE 5.8 mph - N/A   Clear
3:15 AM 14.0 °F 3.9 °F 10.4 °F 86% 30.02 in 10.0 mi SE 6.9 mph - N/A   Clear
3:35 AM 14.0 °F 3.9 °F 10.4 °F 86% 30.01 in 10.0 mi SE 6.9 mph - N/A   Clear
3:55 AM 12.2 °F 1.7 °F 8.6 °F 85% 30.00 in 10.0 mi SSE 6.9 mph - N/A   Clear
4:15 AM 12.2 °F 4.3 °F 8.6 °F 85% 30.01 in 10.0 mi SSE 4.6 mph - N/A   Clear
4:35 AM 10.4 °F 0.8 °F 8.6 °F 92% 30.00 in 10.0 mi SSE 5.8 mph - N/A   Clear
4:55 AM 10.4 °F 2.2 °F 8.6 °F 92% 30.00 in 10.0 mi SSE 4.6 mph - N/A   Clear
5:35 AM 10.4 °F 0.8 °F 8.6 °F 92% 30.00 in 10.0 mi SSE 5.8 mph - N/A   Clear
5:55 AM 10.4 °F 0.8 °F 8.6 °F 92% 30.01 in 10.0 mi SE 5.8 mph - N/A   Clear
6:15 AM 10.4 °F -0.4 °F 8.6 °F 92% 30.00 in 10.0 mi SE 6.9 mph - N/A   Clear
6:35 AM 10.4 °F 0.8 °F 8.6 °F 92% 29.99 in 10.0 mi SE 5.8 mph - N/A   Clear
6:55 AM 12.2 °F 2.9 °F 8.6 °F 85% 29.99 in 10.0 mi SE 5.8 mph - N/A   Clear
7:15 AM 14.0 °F 3.9 °F 10.4 °F 86% 29.99 in 10.0 mi SE 6.9 mph - N/A   Clear
7:35 AM 14.0 °F 2.0 °F 12.2 °F 93% 29.99 in 10.0 mi SE 9.2 mph - N/A   Clear
7:55 AM 14.0 °F 1.2 °F 10.4 °F 86% 29.98 in 10.0 mi SE 10.4 mph - N/A   Clear
8:15 AM 15.8 °F 3.4 °F 10.4 °F 79% 29.98 in 10.0 mi SE 10.4 mph - N/A   Clear
8:35 AM 15.8 °F 2.7 °F 12.2 °F 86% 29.97 in 10.0 mi SE 11.5 mph - N/A   Clear
8:55 AM 17.6 °F 5.7 °F 12.2 °F 79% 29.97 in 10.0 mi SE 10.4 mph - N/A   Clear
9:15 AM 19.4 °F 6.0 °F 14.0 °F 80% 29.97 in 10.0 mi SE 13.8 mph - N/A   Clear
9:55 AM 21.2 °F 7.3 °F 14.0 °F 74% 29.95 in 10.0 mi SE 16.1 mph - N/A   Clear
10:15 AM 21.2 °F 7.3 °F 15.8 °F 80% 29.95 in 10.0 mi SE 16.1 mph 19.6 mph N/A   Clear
10:55 AM 23.0 °F 10.6 °F 17.6 °F 80% 29.95 in 10.0 mi SE 13.8 mph - N/A   Scattered Clouds
11:15 AM 23.0 °F 10.6 °F 17.6 °F 80% 29.95 in 10.0 mi SE 13.8 mph - N/A   Scattered Clouds
11:35 AM 24.8 °F 12.4 °F 17.6 °F 74% 29.94 in 10.0 mi SE 15.0 mph - N/A   Clear
11:55 AM 26.6 °F 14.3 °F 19.4 °F 74% 29.93 in 10.0 mi SE 16.1 mph - N/A   Clear
12:15 PM 26.6 °F 15.2 °F 19.4 °F 74% 29.92 in 10.0 mi SE 13.8 mph - N/A   Clear
12:35 PM 26.6 °F 14.7 °F 19.4 °F 74% 29.91 in 10.0 mi SE 15.0 mph - N/A   Scattered Clouds
12:55 PM 28.4 °F 17.0 °F 21.2 °F 74% 29.91 in 10.0 mi SE 15.0 mph 20.7 mph N/A   Clear
1:15 PM 28.4 °F 16.6 °F 21.2 °F 74% 29.90 in 10.0 mi SE 16.1 mph - N/A   Clear
1:35 PM 30.2 °F 18.9 °F 21.2 °F 69% 29.89 in 10.0 mi SE 16.1 mph 20.7 mph N/A   Clear
1:55 PM 30.2 °F 20.2 °F 23.0 °F 75% 29.87 in 10.0 mi SE 12.7 mph - N/A   Scattered Clouds
2:15 PM 30.2 °F 17.8 °F 23.0 °F 75% 29.86 in 10.0 mi SE 19.6 mph 25.3 mph N/A   Scattered Clouds
3:15 PM 32.0 °F 21.2 °F 24.8 °F 75% 29.86 in 10.0 mi SE 16.1 mph - N/A   Overcast
3:55 PM 30.2 °F 17.8 °F 23.0 °F 75% 29.85 in 10.0 mi SE 19.6 mph - N/A   Mostly Cloudy
4:35 PM 30.2 °F 18.5 °F 23.0 °F 75% 29.85 in 10.0 mi SE 17.3 mph - N/A   Mostly Cloudy
4:55 PM 30.2 °F 18.1 °F 21.2 °F 69% 29.85 in 10.0 mi SE 18.4 mph 24.2 mph N/A   Mostly Cloudy
5:15 PM 30.2 °F 18.9 °F 21.2 °F 69% 29.85 in 10.0 mi ESE 16.1 mph - N/A   Scattered Clouds
5:35 PM 28.4 °F 15.8 °F 19.4 °F 69% 29.86 in 10.0 mi SE 18.4 mph 24.2 mph N/A   Mostly Cloudy
5:55 PM 28.4 °F 16.2 °F 17.6 °F 64% 29.85 in 10.0 mi SE 17.3 mph 21.9 mph N/A   Overcast
6:15 PM 28.4 °F 16.2 °F 17.6 °F 64% 29.85 in 10.0 mi ESE 17.3 mph 24.2 mph N/A   Overcast
6:35 PM 28.4 °F 16.2 °F 17.6 °F 64% 29.85 in 10.0 mi SE 17.3 mph 21.9 mph N/A   Overcast
6:55 PM 28.4 °F 17.5 °F 17.6 °F 64% 29.86 in 10.0 mi ESE 13.8 mph - N/A   Overcast
7:15 PM 28.4 °F 17.5 °F 17.6 °F 64% 29.85 in 10.0 mi SE 13.8 mph - N/A   Overcast
7:35 PM 28.4 °F 16.2 °F 17.6 °F 64% 29.85 in 10.0 mi SE 17.3 mph 20.7 mph N/A   Overcast
7:55 PM 28.4 °F 16.6 °F 17.6 °F 64% 29.85 in 10.0 mi SE 16.1 mph - N/A   Overcast
8:15 PM 28.4 °F 17.0 °F 17.6 °F 64% 29.84 in 10.0 mi SE 15.0 mph - N/A   Overcast
8:35 PM 28.4 °F 16.6 °F 17.6 °F 64% 29.84 in 10.0 mi SE 16.1 mph 25.3 mph N/A   Overcast
8:55 PM 26.6 °F 13.8 °F 17.6 °F 69% 29.84 in 10.0 mi SE 17.3 mph - N/A   Overcast
9:15 PM 26.6 °F 13.1 °F 17.6 °F 69% 29.83 in 10.0 mi SE 19.6 mph 25.3 mph N/A   Overcast
9:35 PM 28.4 °F 15.1 °F 17.6 °F 64% 29.83 in 10.0 mi SE 20.7 mph 26.5 mph N/A   Overcast
9:55 PM 28.4 °F 15.4 °F 17.6 °F 64% 29.83 in 10.0 mi SE 19.6 mph 26.5 mph N/A   Overcast
10:15 PM 28.4 °F 15.4 °F 17.6 °F 64% 29.83 in 10.0 mi SE 19.6 mph 25.3 mph N/A   Overcast
10:35 PM 26.6 °F 13.1 °F 17.6 °F 69% 29.83 in 10.0 mi SE 19.6 mph 26.5 mph N/A   Overcast
10:55 PM 26.6 °F 13.4 °F 17.6 °F 69% 29.83 in 10.0 mi SE 18.4 mph 25.3 mph N/A   Overcast
11:15 PM 26.6 °F 12.7 °F 17.6 °F 69% 29.83 in 10.0 mi SE 20.7 mph 26.5 mph N/A   Overcast
11:35 PM 26.6 °F 13.1 °F 19.4 °F 74% 29.83 in 7.0 mi SE 19.6 mph 27.6 mph N/A   Overcast
11:55 PM 26.6 °F 12.7 °F 19.4 °F 74% 29.82 in 10.0 mi SE 20.7 mph 26.5 mph N/A   Overcast